Location: Gradaro
(45.0833°N, 10.8833°E)
Time: 09:01:42
(UTC+00:00)

FENGYUN 1C DEB - Pass Details

Date: 28 June 2021
Orbit: 803 x 830 km, 98.8° (Epoch: 28 July)

Event Time Altitude Azimuth Distance (km) Brightness Sun altitude
Exits shadow 20:11:25 - 111° (ESE) 2,506 ? -9.3°
Reaches altitude 10° 20:11:47 10° 109° (ESE) 2,396 ? -9.4°
Maximum altitude 20:15:43 22° 60° (ENE) 1,729 ? -9.8°
Drops below altitude 10° 20:19:42 10° 12° (NNE) 2,421 ? -10.3°
Sets 20:22:32 0° 358° (N) 3,363 ? -10.6°
